{"data":{"norad_id":65569,"intl_designator":"2025-203E","name":"PRAETORIAN SDA_606","alt_names":[],"object_type":"PAYLOAD","status":"ACTIVE","operator":null,"country":"US","launch_date":"2025-09-10","launch_site_code":"AFWTR","launch_vehicle":null,"mission":null,"orbit_class":"UNKNOWN","rcs_meters":null,"size_class":null,"mass_kg":null,"dimensions":null,"purposes":["military"],"wikipedia_slug":null,"has_3d_model":false,"image_url":null,"decayed_at":null,"tle_current":{"epoch":"2026-05-25T02:11:24.794016Z","epoch_age_seconds":67248,"freshness":"FRESH","line1":"1 65569U 25203E   26145.09125919  .00000078  00000+0  60396-4 0  9999","line2":"2 65569  81.3071  32.3374 0004830 252.0960 107.9670 13.83404149 35492","mean_motion":13.83404149,"eccentricity":0.000483,"inclination_deg":81.3071,"raan_deg":32.3374,"arg_perigee_deg":252.096,"mean_anomaly_deg":107.967,"bstar":6.0396e-5,"rev_number":3549,"period_min":104.09105690777,"perigee_km":948.29703740398,"apogee_km":955.37779268891,"semimajor_km":7329.9744150464,"source":"CELESTRAK","updated_at":"2026-05-25T13:38:25.167868Z"}}}